Private Wetterstation Wechselburg
Wetterdaten: Sonntag, 19.09.2021
Datum Zeit Temp. +2m Bodentemp. Temp.+5cm Temp. Wind Windchill X Diff Temp. Feuchte +2m Feuchte +5cm Luftdruck Regen Wind Richtung Richtung Sonnenschein Taupunkt Windchill Windben
19.09.2021 00:00 10,5 C 17,9 C 11,8 C 11,8 C 11,8 C 1,3 C 87 % 94 % 1015,1 hPa 0,0 l/m 0,0 km/h (0 Bft) SO 135 0 min 8,4 C 11,8 C 0,0 km/h (0 Bft)
19.09.2021 00:05 10,4 C 17,9 C 11,9 C 11,8 C 11,8 C 1,4 C 87 % 94 % 1015,1 hPa 0,0 l/m 0,0 km/h (0 Bft) O 90 0 min 8,3 C 11,8 C 0,0 km/h (0 Bft)
19.09.2021 00:10 10,4 C 17,9 C 11,9 C 11,7 C 11,7 C 1,3 C 87 % 94 % 1015,1 hPa 0,0 l/m 0,0 km/h (0 Bft) O 90 0 min 8,3 C 11,7 C 0,0 km/h (0 Bft)
19.09.2021 00:15 10,4 C 17,9 C 11,8 C 11,7 C 11,7 C 1,3 C 87 % 94 % 1014,9 hPa 0,0 l/m 0,0 km/h (0 Bft) NW 315 0 min 8,3 C 11,7 C 0,0 km/h (0 Bft)
19.09.2021 00:20 10,4 C 17,9 C 11,8 C 11,7 C 11,7 C 1,3 C 87 % 94 % 1014,9 hPa 0,0 l/m 0,0 km/h (0 Bft) W 270 0 min 8,3 C 11,7 C 0,0 km/h (0 Bft)
19.09.2021 00:25 10,4 C 17,9 C 11,8 C 11,7 C 11,7 C 1,3 C 87 % 94 % 1014,9 hPa 0,0 l/m 0,0 km/h (0 Bft) W 270 0 min 8,3 C 11,7 C 0,0 km/h (0 Bft)
19.09.2021 00:30 10,4 C 17,9 C 11,8 C 11,7 C 11,7 C 1,3 C 87 % 94 % 1014,9 hPa 0,0 l/m 0,0 km/h (0 Bft) W 270 0 min 8,3 C 11,7 C 0,0 km/h (0 Bft)
19.09.2021 00:35 10,3 C 17,9 C 11,8 C 11,7 C 11,7 C 1,4 C 87 % 94 % 1014,9 hPa 0,0 l/m 0,0 km/h (0 Bft) N-NO 22 0 min 8,2 C 11,7 C 0,0 km/h (0 Bft)
19.09.2021 00:40 10,3 C 17,9 C 11,8 C 11,7 C 11,7 C 1,4 C 87 % 94 % 1014,9 hPa 0,0 l/m 0,0 km/h (0 Bft) N-NW 337 0 min 8,2 C 11,7 C 0,0 km/h (0 Bft)
19.09.2021 00:45 10,3 C 17,9 C 11,7 C 11,7 C 11,7 C 1,4 C 87 % 94 % 1014,9 hPa 0,0 l/m 0,0 km/h (0 Bft) SO 135 0 min 8,2 C 11,7 C 0,0 km/h (0 Bft)
19.09.2021 00:50 10,3 C 17,9 C 11,8 C 11,7 C 11,7 C 1,4 C 87 % 94 % 1014,9 hPa 0,0 l/m 0,0 km/h (0 Bft) S 180 0 min 8,2 C 11,7 C 0,0 km/h (0 Bft)
19.09.2021 00:55 10,2 C 17,9 C 11,8 C 11,7 C 11,7 C 1,5 C 87 % 94 % 1015,0 hPa 0,0 l/m 0,0 km/h (0 Bft) NO 45 0 min 8,1 C 11,7 C 0,0 km/h (0 Bft)
19.09.2021 01:00 10,3 C 17,9 C 11,8 C 11,7 C 11,7 C 1,4 C 87 % 94 % 1015,0 hPa 0,0 l/m 0,0 km/h (0 Bft) NO 45 0 min 8,2 C 11,7 C 0,0 km/h (0 Bft)
19.09.2021 01:05 10,2 C 17,9 C 11,8 C 11,7 C 11,7 C 1,5 C 87 % 94 % 1015,0 hPa 0,0 l/m 0,0 km/h (0 Bft) NO 45 0 min 8,1 C 11,7 C 0,0 km/h (0 Bft)
19.09.2021 01:10 10,4 C 17,9 C 11,8 C 11,7 C 11,7 C 1,3 C 88 % 94 % 1015,0 hPa 0,0 l/m 0,0 km/h (0 Bft) NO 45 0 min 8,5 C 11,7 C 0,0 km/h (0 Bft)
19.09.2021 01:15 10,4 C 17,9 C 11,8 C 11,7 C 11,7 C 1,3 C 88 % 94 % 1015,0 hPa 0,0 l/m 0,0 km/h (0 Bft) NO 45 0 min 8,5 C 11,7 C 0,0 km/h (0 Bft)
19.09.2021 01:20 10,4 C 17,9 C 11,8 C 11,7 C 11,7 C 1,3 C 88 % 94 % 1015,0 hPa 0,0 l/m 0,0 km/h (0 Bft) NO 45 0 min 8,5 C 11,7 C 0,0 km/h (0 Bft)
19.09.2021 01:25 10,3 C 17,9 C 11,8 C 11,7 C 11,7 C 1,4 C 88 % 94 % 1015,0 hPa 0,0 l/m 0,0 km/h (0 Bft) S-SO 157 0 min 8,4 C 11,7 C 0,0 km/h (0 Bft)
19.09.2021 01:30 10,3 C 17,9 C 11,8 C 11,7 C 11,7 C 1,4 C 88 % 94 % 1015,0 hPa 0,0 l/m 0,0 km/h (0 Bft) S 180 0 min 8,4 C 11,7 C 0,0 km/h (0 Bft)
19.09.2021 01:35 10,3 C 17,9 C 11,8 C 11,7 C 11,7 C 1,4 C 88 % 94 % 1014,8 hPa 0,0 l/m 0,0 km/h (0 Bft) NW 315 0 min 8,4 C 11,7 C 0,0 km/h (0 Bft)
19.09.2021 01:40 10,3 C 17,9 C 11,8 C 11,7 C 11,7 C 1,4 C 88 % 94 % 1014,8 hPa 0,0 l/m 0,0 km/h (0 Bft) NW 315 0 min 8,4 C 11,7 C 0,0 km/h (0 Bft)
19.09.2021 01:45 10,3 C 17,9 C 11,8 C 11,7 C 11,7 C 1,4 C 88 % 94 % 1014,8 hPa 0,0 l/m 0,0 km/h (0 Bft) N-NW 337 0 min 8,4 C 11,7 C 0,0 km/h (0 Bft)
19.09.2021 01:50 10,3 C 17,9 C 11,7 C 11,7 C 11,7 C 1,4 C 88 % 94 % 1014,8 hPa 0,0 l/m 0,0 km/h (0 Bft) N-NW 337 0 min 8,4 C 11,7 C 0,0 km/h (0 Bft)
19.09.2021 01:55 10,3 C 17,9 C 11,7 C 11,7 C 11,7 C 1,4 C 88 % 94 % 1014,8 hPa 0,0 l/m 0,0 km/h (0 Bft) NW 315 0 min 8,4 C 11,7 C 0,0 km/h (0 Bft)
19.09.2021 02:00 10,3 C 17,9 C 11,7 C 11,7 C 11,7 C 1,4 C 88 % 94 % 1014,8 hPa 0,0 l/m 0,0 km/h (0 Bft) NW 315 0 min 8,4 C 11,7 C 0,0 km/h (0 Bft)
19.09.2021 02:05 10,3 C 17,9 C 11,7 C 11,7 C 11,7 C 1,4 C 88 % 94 % 1014,8 hPa 0,0 l/m 0,0 km/h (0 Bft) N-NW 337 0 min 8,4 C 11,7 C 0,0 km/h (0 Bft)
19.09.2021 02:10 10,3 C 17,9 C 11,8 C 11,7 C 11,7 C 1,4 C 88 % 94 % 1014,8 hPa 0,0 l/m 0,2 km/h (0 Bft) NW 315 0 min 8,4 C 11,7 C 0,0 km/h (0 Bft)
19.09.2021 02:15 10,3 C 17,8 C 11,8 C 11,7 C 11,7 C 1,4 C 88 % 94 % 1014,9 hPa 0,0 l/m 0,2 km/h (0 Bft) W 270 0 min 8,4 C 11,7 C 2,9 km/h (1 Bft)
19.09.2021 02:20 10,3 C 17,8 C 11,7 C 11,7 C 11,7 C 1,4 C 88 % 94 % 1014,9 hPa 0,0 l/m 0,2 km/h (0 Bft) N-NW 337 0 min 8,4 C 11,7 C 0,0 km/h (0 Bft)
19.09.2021 02:25 10,3 C 17,8 C 11,7 C 11,7 C 11,7 C 1,4 C 88 % 94 % 1014,9 hPa 0,0 l/m 0,0 km/h (0 Bft) SO 135 0 min 8,4 C 11,7 C 0,0 km/h (0 Bft)
19.09.2021 02:30 10,3 C 17,8 C 11,7 C 11,7 C 11,7 C 1,4 C 88 % 94 % 1014,9 hPa 0,0 l/m 0,0 km/h (0 Bft) O-SO 112 0 min 8,4 C 11,7 C 0,0 km/h (0 Bft)
19.09.2021 02:35 10,3 C 17,8 C 11,7 C 11,7 C 11,7 C 1,4 C 88 % 94 % 1014,9 hPa 0,0 l/m 0,0 km/h (0 Bft) SW 225 0 min 8,4 C 11,7 C 0,0 km/h (0 Bft)
19.09.2021 02:40 10,3 C 17,8 C 11,7 C 11,7 C 11,7 C 1,4 C 88 % 94 % 1014,9 hPa 0,0 l/m 0,0 km/h (0 Bft) O-NO 67 0 min 8,4 C 11,7 C 0,0 km/h (0 Bft)
19.09.2021 02:45 10,3 C 17,8 C 11,7 C 11,6 C 11,6 C 1,3 C 88 % 94 % 1014,9 hPa 0,0 l/m 0,0 km/h (0 Bft) N-NO 22 0 min 8,4 C 11,6 C 0,0 km/h (0 Bft)
19.09.2021 02:50 10,2 C 17,8 C 11,7 C 11,6 C 11,6 C 1,4 C 88 % 94 % 1014,9 hPa 0,0 l/m 0,0 km/h (0 Bft) O-NO 67 0 min 8,3 C 11,6 C 0,0 km/h (0 Bft)
19.09.2021 02:55 10,1 C 17,8 C 11,6 C 11,5 C 11,5 C 1,4 C 88 % 94 % 1015,0 hPa 0,0 l/m 0,0 km/h (0 Bft) NW 315 0 min 8,2 C 11,5 C 0,0 km/h (0 Bft)
19.09.2021 03:00 10,1 C 17,8 C 11,6 C 11,5 C 11,5 C 1,4 C 88 % 94 % 1015,0 hPa 0,0 l/m 0,0 km/h (0 Bft) N-NW 337 0 min 8,2 C 11,5 C 0,0 km/h (0 Bft)
19.09.2021 03:05 10,1 C 17,8 C 11,6 C 11,4 C 11,4 C 1,3 C 88 % 94 % 1015,0 hPa 0,0 l/m 0,0 km/h (0 Bft) O-NO 67 0 min 8,2 C 11,4 C 0,0 km/h (0 Bft)
19.09.2021 03:10 10,0 C 17,8 C 11,6 C 11,4 C 11,4 C 1,4 C 88 % 94 % 1015,0 hPa 0,0 l/m 0,0 km/h (0 Bft) NW 315 0 min 8,1 C 11,4 C 0,0 km/h (0 Bft)
19.09.2021 03:15 10,0 C 17,8 C 11,5 C 11,4 C 11,4 C 1,4 C 88 % 94 % 1014,8 hPa 0,0 l/m 0,0 km/h (0 Bft) NW 315 0 min 8,1 C 11,4 C 0,0 km/h (0 Bft)
19.09.2021 03:20 10,1 C 17,8 C 11,5 C 11,4 C 11,4 C 1,3 C 88 % 94 % 1014,8 hPa 0,0 l/m 0,0 km/h (0 Bft) NW 315 0 min 8,2 C 11,4 C 0,0 km/h (0 Bft)
19.09.2021 03:25 10,0 C 17,7 C 11,5 C 11,3 C 11,3 C 1,3 C 88 % 94 % 1014,8 hPa 0,0 l/m 0,0 km/h (0 Bft) NW 315 0 min 8,1 C 11,3 C 0,0 km/h (0 Bft)
19.09.2021 03:30 10,0 C 17,7 C 11,5 C 11,3 C 11,3 C 1,3 C 88 % 94 % 1014,8 hPa 0,0 l/m 0,0 km/h (0 Bft) NW 315 0 min 8,1 C 11,3 C 0,0 km/h (0 Bft)
19.09.2021 03:35 10,0 C 17,7 C 11,5 C 11,3 C 11,3 C 1,3 C 88 % 94 % 1014,9 hPa 0,0 l/m 0,0 km/h (0 Bft) NW 315 0 min 8,1 C 11,3 C 0,0 km/h (0 Bft)
19.09.2021 03:40 10,0 C 17,7 C 11,5 C 11,3 C 11,3 C 1,3 C 88 % 94 % 1014,9 hPa 0,0 l/m 0,0 km/h (0 Bft) NW 315 0 min 8,1 C 11,3 C 0,0 km/h (0 Bft)
19.09.2021 03:45 9,9 C 17,7 C 11,5 C 11,3 C 11,3 C 1,4 C 88 % 95 % 1014,9 hPa 0,0 l/m 0,0 km/h (0 Bft) NO 45 0 min 8,0 C 11,3 C 0,0 km/h (0 Bft)
19.09.2021 03:50 9,9 C 17,7 C 11,5 C 11,3 C 11,3 C 1,4 C 88 % 94 % 1014,9 hPa 0,0 l/m 0,0 km/h (0 Bft) NO 45 0 min 8,0 C 11,3 C 0,0 km/h (0 Bft)
19.09.2021 03:55 10,0 C 17,7 C 11,5 C 11,3 C 11,3 C 1,3 C 88 % 94 % 1014,8 hPa 0,0 l/m 0,0 km/h (0 Bft) NO 45 0 min 8,1 C 11,3 C 0,0 km/h (0 Bft)
19.09.2021 04:00 10,0 C 17,7 C 11,5 C 11,4 C 11,4 C 1,4 C 88 % 95 % 1014,8 hPa 0,0 l/m 0,0 km/h (0 Bft) NO 45 0 min 8,1 C 11,4 C 0,0 km/h (0 Bft)
19.09.2021 04:05 10,0 C 17,7 C 11,5 C 11,4 C 11,4 C 1,4 C 88 % 94 % 1014,8 hPa 0,0 l/m 0,0 km/h (0 Bft) NO 45 0 min 8,1 C 11,4 C 0,0 km/h (0 Bft)
19.09.2021 04:10 10,0 C 17,7 C 11,5 C 11,4 C 11,4 C 1,4 C 88 % 94 % 1014,8 hPa 0,0 l/m 0,0 km/h (0 Bft) NO 45 0 min 8,1 C 11,4 C 0,0 km/h (0 Bft)
19.09.2021 04:15 10,1 C 17,7 C 11,5 C 11,4 C 11,4 C 1,3 C 88 % 94 % 1015,2 hPa 0,0 l/m 0,0 km/h (0 Bft) NO 45 0 min 8,2 C 11,4 C 0,0 km/h (0 Bft)
19.09.2021 04:20 10,1 C 17,7 C 11,5 C 11,4 C 11,4 C 1,3 C 88 % 94 % 1015,2 hPa 0,0 l/m 0,0 km/h (0 Bft) NO 45 0 min 8,2 C 11,4 C 0,0 km/h (0 Bft)
19.09.2021 04:25 10,1 C 17,7 C 11,5 C 11,4 C 11,4 C 1,3 C 88 % 94 % 1015,2 hPa 0,0 l/m 0,0 km/h (0 Bft) NO 45 0 min 8,2 C 11,4 C 0,0 km/h (0 Bft)
19.09.2021 04:30 10,0 C 17,7 C 11,5 C 11,4 C 11,4 C 1,4 C 88 % 94 % 1015,2 hPa 0,0 l/m 0,0 km/h (0 Bft) O-NO 67 0 min 8,1 C 11,4 C 0,0 km/h (0 Bft)
19.09.2021 04:35 10,0 C 17,7 C 11,5 C 11,4 C 11,4 C 1,4 C 88 % 94 % 1014,4 hPa 0,0 l/m 0,0 km/h (0 Bft) O-NO 67 0 min 8,1 C 11,4 C 0,0 km/h (0 Bft)
19.09.2021 04:40 10,0 C 17,7 C 11,5 C 11,4 C 11,4 C 1,4 C 88 % 94 % 1014,4 hPa 0,0 l/m 0,0 km/h (0 Bft) O-NO 67 0 min 8,1 C 11,4 C 0,0 km/h (0 Bft)
19.09.2021 04:45 10,1 C 17,7 C 11,5 C 11,4 C 11,4 C 1,3 C 88 % 94 % 1014,4 hPa 0,0 l/m 0,0 km/h (0 Bft) O-NO 67 0 min 8,2 C 11,4 C 0,0 km/h (0 Bft)
19.09.2021 04:50 10,1 C 17,7 C 11,5 C 11,4 C 11,4 C 1,3 C 88 % 94 % 1014,4 hPa 0,0 l/m 0,0 km/h (0 Bft) O-NO 67 0 min 8,2 C 11,4 C 0,0 km/h (0 Bft)
19.09.2021 04:55 10,1 C 17,7 C 11,5 C 11,5 C 11,5 C 1,4 C 88 % 94 % 1014,7 hPa 0,0 l/m 0,0 km/h (0 Bft) N-NW 337 0 min 8,2 C 11,5 C 0,0 km/h (0 Bft)
19.09.2021 05:00 10,1 C 17,7 C 11,5 C 11,4 C 11,4 C 1,3 C 88 % 94 % 1014,7 hPa 0,0 l/m 0,0 km/h (0 Bft) O-NO 67 0 min 8,2 C 11,4 C 0,0 km/h (0 Bft)
19.09.2021 05:05 10,1 C 17,7 C 11,5 C 11,4 C 11,4 C 1,3 C 88 % 94 % 1014,7 hPa 0,0 l/m 0,0 km/h (0 Bft) O-NO 67 0 min 8,2 C 11,4 C 0,0 km/h (0 Bft)
19.09.2021 05:10 10,1 C 17,7 C 11,5 C 11,4 C 11,4 C 1,3 C 88 % 94 % 1014,7 hPa 0,0 l/m 0,0 km/h (0 Bft) O-NO 67 0 min 8,2 C 11,4 C 0,0 km/h (0 Bft)
19.09.2021 05:15 10,1 C 17,7 C 11,5 C 11,4 C 11,4 C 1,3 C 88 % 94 % 1014,7 hPa 0,0 l/m 0,0 km/h (0 Bft) S-SO 157 0 min 8,2 C 11,4 C 0,0 km/h (0 Bft)
19.09.2021 05:20 10,0 C 17,7 C 11,5 C 11,4 C 11,4 C 1,4 C 88 % 95 % 1014,7 hPa 0,0 l/m 0,0 km/h (0 Bft) SO 135 0 min 8,1 C 11,4 C 0,0 km/h (0 Bft)
19.09.2021 05:25 10,0 C 17,7 C 11,5 C 11,4 C 11,4 C 1,4 C 88 % 95 % 1014,7 hPa 0,0 l/m 0,0 km/h (0 Bft) NO 45 0 min 8,1 C 11,4 C 0,0 km/h (0 Bft)
19.09.2021 05:30 10,0 C 17,7 C 11,5 C 11,3 C 11,3 C 1,3 C 88 % 95 % 1014,7 hPa 0,0 l/m 0,0 km/h (0 Bft) NO 45 0 min 8,1 C 11,3 C 0,0 km/h (0 Bft)
19.09.2021 05:35 9,9 C 17,6 C 11,4 C 11,2 C 11,2 C 1,3 C 88 % 95 % 1014,2 hPa 0,0 l/m 0,0 km/h (0 Bft) O-SO 112 0 min 8,0 C 11,2 C 0,0 km/h (0 Bft)
19.09.2021 05:40 9,8 C 17,6 C 11,3 C 11,2 C 11,2 C 1,4 C 88 % 95 % 1014,2 hPa 0,0 l/m 0,0 km/h (0 Bft) NO 45 0 min 7,9 C 11,2 C 0,0 km/h (0 Bft)
19.09.2021 05:45 9,9 C 17,6 C 11,3 C 11,2 C 11,2 C 1,3 C 88 % 95 % 1014,2 hPa 0,0 l/m 0,0 km/h (0 Bft) NO 45 0 min 8,0 C 11,2 C 0,0 km/h (0 Bft)
19.09.2021 05:50 9,8 C 17,6 C 11,3 C 11,2 C 11,2 C 1,4 C 88 % 95 % 1014,2 hPa 0,0 l/m 0,0 km/h (0 Bft) O-NO 67 0 min 7,9 C 11,2 C 0,0 km/h (0 Bft)
19.09.2021 05:55 9,7 C 17,6 C 11,2 C 11,2 C 11,2 C 1,5 C 88 % 95 % 1014,4 hPa 0,0 l/m 0,0 km/h (0 Bft) O-NO 67 0 min 7,8 C 11,2 C 0,0 km/h (0 Bft)
19.09.2021 06:00 9,6 C 17,6 C 11,2 C 11,1 C 11,1 C 1,5 C 88 % 95 % 1014,4 hPa 0,0 l/m 0,2 km/h (0 Bft) O-NO 67 0 min 7,7 C 11,1 C 0,0 km/h (0 Bft)
19.09.2021 06:05 9,7 C 17,5 C 11,2 C 11,1 C 11,1 C 1,4 C 88 % 95 % 1014,4 hPa 0,0 l/m 0,3 km/h (0 Bft) O-NO 67 0 min 7,8 C 11,1 C 0,0 km/h (0 Bft)
19.09.2021 06:10 9,6 C 17,6 C 11,1 C 11,2 C 11,2 C 1,6 C 88 % 95 % 1014,4 hPa 0,0 l/m 0,2 km/h (0 Bft) O-NO 67 0 min 7,7 C 11,2 C 0,0 km/h (0 Bft)
19.09.2021 06:15 9,7 C 17,6 C 11,2 C 11,1 C 11,1 C 1,4 C 88 % 95 % 1014,3 hPa 0,0 l/m 0,0 km/h (0 Bft) N-NO 22 0 min 7,8 C 11,1 C 0,0 km/h (0 Bft)
19.09.2021 06:20 9,7 C 17,6 C 11,1 C 11,1 C 11,1 C 1,4 C 88 % 95 % 1014,3 hPa 0,0 l/m 0,2 km/h (0 Bft) O-NO 67 0 min 7,8 C 11,1 C 1,9 km/h (1 Bft)
19.09.2021 06:25 9,5 C 17,5 C 11,1 C 11,1 C 11,1 C 1,6 C 88 % 95 % 1014,3 hPa 0,0 l/m 1,0 km/h (0 Bft) O-NO 67 0 min 7,6 C 11,1 C 4,2 km/h (1 Bft)
19.09.2021 06:30 9,3 C 17,5 C 11,0 C 11,1 C 11,1 C 1,8 C 88 % 95 % 1014,3 hPa 0,0 l/m 2,4 km/h (1 Bft) O-NO 67 0 min 7,4 C 11,1 C 4,2 km/h (1 Bft)
19.09.2021 06:35 8,9 C 17,3 C 10,7 C 10,9 C 10,9 C 2,0 C 88 % 95 % 1014,6 hPa 0,0 l/m 2,7 km/h (1 Bft) O-NO 67 0 min 7,0 C 10,9 C 4,3 km/h (1 Bft)
19.09.2021 06:40 8,7 C 17,3 C 10,5 C 10,7 C 10,7 C 2,0 C 88 % 94 % 1014,6 hPa 0,0 l/m 2,3 km/h (1 Bft) SW 225 0 min 6,8 C 10,7 C 2,4 km/h (1 Bft)
19.09.2021 06:45 8,5 C 17,3 C 10,4 C 10,6 C 10,6 C 2,1 C 88 % 94 % 1014,6 hPa 0,0 l/m 1,4 km/h (1 Bft) O-NO 67 0 min 6,6 C 10,6 C 1,8 km/h (1 Bft)
19.09.2021 06:50 8,5 C 17,3 C 10,3 C 10,4 C 10,4 C 1,9 C 88 % 94 % 1014,6 hPa 0,0 l/m 0,6 km/h (0 Bft) O-NO 67 0 min 6,6 C 10,4 C 0,0 km/h (0 Bft)
19.09.2021 06:55 8,3 C 17,3 C 10,2 C 10,3 C 10,3 C 2,0 C 88 % 95 % 1014,9 hPa 0,0 l/m 0,3 km/h (0 Bft) O-SO 112 0 min 6,4 C 10,3 C 0,0 km/h (0 Bft)
19.09.2021 07:00 8,2 C 17,3 C 10,2 C 10,2 C 10,2 C 2,0 C 88 % 95 % 1014,9 hPa 0,0 l/m 0,2 km/h (0 Bft) O-NO 67 0 min 6,3 C 10,2 C 0,0 km/h (0 Bft)
19.09.2021 07:05 8,3 C 17,3 C 10,1 C 10,2 C 10,2 C 1,9 C 88 % 95 % 1014,9 hPa 0,0 l/m 0,2 km/h (0 Bft) NO 45 5 min 6,4 C 10,2 C 0,0 km/h (0 Bft)
19.09.2021 07:10 8,1 C 17,3 C 10,1 C 10,1 C 10,1 C 2,0 C 88 % 95 % 1014,9 hPa 0,0 l/m 0,0 km/h (0 Bft) NO 45 5 min 6,2 C 10,1 C 0,0 km/h (0 Bft)
19.09.2021 07:15 8,0 C 17,3 C 10,1 C 10,0 C 10,0 C 2,0 C 88 % 95 % 1015,2 hPa 0,0 l/m 0,0 km/h (0 Bft) NO 45 5 min 6,1 C 10,0 C 0,0 km/h (0 Bft)
19.09.2021 07:20 8,1 C 17,2 C 10,1 C 10,0 C 10,0 C 1,9 C 88 % 95 % 1015,2 hPa 0,0 l/m 0,3 km/h (0 Bft) O-NO 67 5 min 6,2 C 10,0 C 1,9 km/h (1 Bft)
19.09.2021 07:25 8,1 C 17,2 C 10,1 C 10,1 C 10,1 C 2,0 C 88 % 95 % 1015,2 hPa 0,0 l/m 1,1 km/h (1 Bft) O-NO 67 5 min 6,2 C 10,1 C 1,8 km/h (1 Bft)
19.09.2021 07:30 8,0 C 17,1 C 10,0 C 10,1 C 10,1 C 2,1 C 88 % 94 % 1015,2 hPa 0,0 l/m 1,1 km/h (1 Bft) O-SO 112 5 min 6,1 C 10,1 C 0,0 km/h (0 Bft)
19.09.2021 07:35 8,0 C 17,1 C 10,0 C 10,2 C 10,2 C 2,2 C 88 % 94 % 1014,9 hPa 0,0 l/m 0,5 km/h (0 Bft) O 90 5 min 6,1 C 10,2 C 0,0 km/h (0 Bft)
19.09.2021 07:40 7,9 C 17,1 C 10,0 C 10,2 C 10,2 C 2,3 C 88 % 94 % 1014,9 hPa 0,0 l/m 0,5 km/h (0 Bft) O-SO 112 5 min 6,0 C 10,2 C 0,0 km/h (0 Bft)
19.09.2021 07:45 7,9 C 17,1 C 10,0 C 10,2 C 10,2 C 2,3 C 88 % 94 % 1014,9 hPa 0,0 l/m 0,5 km/h (0 Bft) O-NO 67 5 min 6,0 C 10,2 C 1,8 km/h (1 Bft)
19.09.2021 07:50 7,9 C 17,1 C 10,1 C 10,3 C 10,3 C 2,4 C 88 % 94 % 1014,9 hPa 0,0 l/m 0,8 km/h (0 Bft) O-NO 67 5 min 6,0 C 10,3 C 1,6 km/h (1 Bft)
19.09.2021 07:55 8,0 C 17,1 C 10,0 C 10,4 C 10,4 C 2,4 C 88 % 94 % 1015,1 hPa 0,0 l/m 1,1 km/h (1 Bft) O-SO 112 5 min 6,1 C 10,4 C 2,6 km/h (1 Bft)
19.09.2021 08:00 8,0 C 17,1 C 10,1 C 10,4 C 10,4 C 2,4 C 88 % 94 % 1015,1 hPa 0,0 l/m 1,4 km/h (1 Bft) NO 45 5 min 6,1 C 10,4 C 2,1 km/h (1 Bft)
19.09.2021 08:05 8,0 C 17,1 C 10,1 C 10,6 C 10,6 C 2,6 C 88 % 94 % 1015,1 hPa 0,0 l/m 1,1 km/h (1 Bft) O-NO 67 5 min 6,1 C 10,6 C 1,9 km/h (1 Bft)
19.09.2021 08:10 8,0 C 17,1 C 10,1 C 10,7 C 10,7 C 2,7 C 88 % 94 % 1015,1 hPa 0,0 l/m 0,8 km/h (0 Bft) O-NO 67 5 min 6,1 C 10,7 C 1,6 km/h (1 Bft)
19.09.2021 08:15 8,1 C 17,1 C 10,2 C 10,8 C 10,8 C 2,7 C 88 % 94 % 1015,2 hPa 0,0 l/m 0,2 km/h (0 Bft) O-SO 112 5 min 6,2 C 10,8 C 0,0 km/h (0 Bft)
19.09.2021 08:20 8,3 C 17,0 C 10,2 C 10,9 C 10,9 C 2,6 C 88 % 94 % 1015,2 hPa 0,0 l/m 0,2 km/h (0 Bft) O-NO 67 5 min 6,4 C 10,9 C 1,8 km/h (1 Bft)
19.09.2021 08:25 8,3 C 17,1 C 10,2 C 11,0 C 11,0 C 2,7 C 88 % 93 % 1015,2 hPa 0,0 l/m 1,1 km/h (1 Bft) O-NO 67 5 min 6,4 C 11,0 C 2,3 km/h (1 Bft)
19.09.2021 08:30 8,3 C 17,1 C 10,3 C 11,1 C 11,1 C 2,8 C 88 % 93 % 1015,2 hPa 0,0 l/m 1,1 km/h (1 Bft) NO 45 5 min 6,4 C 11,1 C 0,0 km/h (0 Bft)
19.09.2021 08:35 8,4 C 17,0 C 10,4 C 11,3 C 11,3 C 2,9 C 87 % 93 % 1015,1 hPa 0,0 l/m 0,3 km/h (0 Bft) N-NO 22 5 min 6,4 C 11,3 C 0,0 km/h (0 Bft)
19.09.2021 08:40 8,5 C 17,1 C 10,5 C 11,4 C 11,4 C 2,9 C 87 % 93 % 1015,1 hPa 0,0 l/m 0,2 km/h (0 Bft) O-NO 67 5 min 6,5 C 11,4 C 0,0 km/h (0 Bft)
19.09.2021 08:45 8,7 C 17,0 C 10,5 C 11,7 C 11,7 C 3,0 C 88 % 93 % 1015,1 hPa 0,0 l/m 0,0 km/h (0 Bft) NO 45 5 min 6,8 C 11,7 C 0,0 km/h (0 Bft)
19.09.2021 08:50 8,7 C 17,0 C 10,6 C 11,8 C 11,8 C 3,1 C 87 % 93 % 1015,1 hPa 0,0 l/m 0,0 km/h (0 Bft) O 90 5 min 6,7 C 11,8 C 0,0 km/h (0 Bft)
19.09.2021 08:55 8,7 C 17,0 C 10,7 C 11,9 C 11,9 C 3,2 C 87 % 93 % 1015,2 hPa 0,0 l/m 1,1 km/h (1 Bft) O 90 5 min 6,7 C 11,9 C 3,1 km/h (1 Bft)
19.09.2021 09:00 8,7 C 17,0 C 10,7 C 11,9 C 11,9 C 3,2 C 87 % 92 % 1015,2 hPa 0,0 l/m 2,1 km/h (1 Bft) O-NO 67 0 min 6,7 C 11,9 C 2,9 km/h (1 Bft)
19.09.2021 09:05 8,8 C 16,9 C 10,5 C 11,8 C 11,8 C 3,0 C 87 % 91 % 1015,2 hPa 0,0 l/m 3,1 km/h (1 Bft) O-SO 112 0 min 6,8 C 11,8 C 6,8 km/h (2 Bft)
19.09.2021 09:10 9,1 C 16,8 C 10,6 C 11,9 C 11,9 C 2,8 C 87 % 90 % 1015,2 hPa 0,0 l/m 3,2 km/h (1 Bft) O-NO 67 0 min 7,1 C 11,9 C 4,2 km/h (1 Bft)
19.09.2021 09:15 9,5 C 16,8 C 10,6 C 11,9 C 11,9 C 2,4 C 88 % 90 % 1015,1 hPa 0,0 l/m 3,2 km/h (1 Bft) O-NO 67 0 min 7,6 C 11,9 C 4,0 km/h (1 Bft)
19.09.2021 09:20 9,8 C 16,9 C 10,7 C 12,0 C 12,0 C 2,2 C 88 % 90 % 1015,1 hPa 0,0 l/m 3,2 km/h (1 Bft) O-NO 67 0 min 7,9 C 12,0 C 3,1 km/h (1 Bft)
19.09.2021 09:25 10,0 C 16,8 C 10,8 C 12,1 C 12,1 C 2,1 C 88 % 90 % 1015,1 hPa 0,0 l/m 3,2 km/h (1 Bft) O-NO 67 0 min 8,1 C 12,1 C 3,4 km/h (1 Bft)
19.09.2021 09:30 10,3 C 16,8 C 10,8 C 12,2 C 12,2 C 1,9 C 88 % 90 % 1015,1 hPa 0,0 l/m 2,9 km/h (1 Bft) O-NO 67 0 min 8,4 C 12,2 C 0,0 km/h (0 Bft)
19.09.2021 09:35 10,5 C 16,8 C 10,9 C 12,4 C 12,4 C 1,9 C 87 % 89 % 1015,4 hPa 0,0 l/m 3,4 km/h (1 Bft) O-NO 67 0 min 8,4 C 12,4 C 8,5 km/h (2 Bft)
19.09.2021 09:40 10,7 C 16,8 C 10,9 C 12,4 C 12,4 C 1,7 C 87 % 88 % 1015,4 hPa 0,0 l/m 3,7 km/h (1 Bft) O-NO 67 0 min 8,6 C 12,4 C 3,4 km/h (1 Bft)
19.09.2021 09:45 10,7 C 16,8 C 11,0 C 12,7 C 12,7 C 2,0 C 86 % 89 % 1015,4 hPa 0,0 l/m 3,5 km/h (1 Bft) O-NO 67 0 min 8,5 C 12,7 C 4,3 km/h (1 Bft)
19.09.2021 09:50 10,8 C 16,8 C 11,1 C 12,7 C 12,7 C 1,9 C 86 % 88 % 1015,4 hPa 0,0 l/m 3,4 km/h (1 Bft) O 90 0 min 8,6 C 12,7 C 6,3 km/h (2 Bft)
19.09.2021 09:55 10,8 C 16,8 C 11,1 C 12,7 C 12,7 C 1,9 C 85 % 87 % 1015,7 hPa 0,0 l/m 4,8 km/h (1 Bft) O-NO 67 0 min 8,4 C 12,7 C 8,9 km/h (2 Bft)
19.09.2021 10:00 10,8 C 16,8 C 11,2 C 12,8 C 12,8 C 2,0 C 85 % 87 % 1015,7 hPa 0,0 l/m 4,7 km/h (1 Bft) O-NO 67 0 min 8,4 C 12,8 C 8,0 km/h (2 Bft)
19.09.2021 10:05 10,9 C 16,8 C 11,2 C 12,9 C 12,9 C 2,0 C 84 % 87 % 1015,7 hPa 0,0 l/m 4,0 km/h (1 Bft) O-NO 67 0 min 8,3 C 12,9 C 7,7 km/h (2 Bft)
19.09.2021 10:10 10,9 C 16,7 C 11,1 C 13,0 C 13,0 C 2,1 C 83 % 85 % 1015,7 hPa 0,0 l/m 4,8 km/h (1 Bft) O-NO 67 0 min 8,1 C 13,0 C 5,0 km/h (1 Bft)
19.09.2021 10:15 11,1 C 16,7 C 11,4 C 13,1 C 13,1 C 2,0 C 83 % 87 % 1016,0 hPa 0,0 l/m 3,5 km/h (1 Bft) O 90 0 min 8,3 C 13,1 C 1,9 km/h (1 Bft)
19.09.2021 10:20 11,1 C 16,7 C 11,4 C 13,3 C 13,3 C 2,2 C 83 % 86 % 1016,0 hPa 0,0 l/m 2,4 km/h (1 Bft) O-NO 67 0 min 8,3 C 13,3 C 2,7 km/h (1 Bft)
19.09.2021 10:25 11,0 C 16,7 C 11,3 C 13,3 C 13,3 C 2,3 C 82 % 84 % 1016,0 hPa 0,0 l/m 3,9 km/h (1 Bft) O-SO 112 0 min 8,0 C 13,3 C 11,9 km/h (2 Bft)
19.09.2021 10:30 11,1 C 16,7 C 11,3 C 13,2 C 13,2 C 2,1 C 82 % 84 % 1016,0 hPa 0,0 l/m 3,9 km/h (1 Bft) O-NO 67 0 min 8,1 C 13,2 C 3,9 km/h (1 Bft)
19.09.2021 10:35 11,1 C 16,7 C 11,3 C 13,2 C 13,2 C 2,1 C 82 % 84 % 1016,2 hPa 0,0 l/m 3,1 km/h (1 Bft) NO 45 0 min 8,1 C 13,2 C 2,7 km/h (1 Bft)
19.09.2021 10:40 11,1 C 16,7 C 11,3 C 13,1 C 13,1 C 2,0 C 81 % 84 % 1016,2 hPa 0,0 l/m 2,6 km/h (1 Bft) O-NO 67 0 min 8,0 C 13,1 C 6,1 km/h (2 Bft)
19.09.2021 10:45 11,1 C 16,6 C 11,3 C 13,0 C 13,0 C 1,9 C 81 % 83 % 1016,2 hPa 0,0 l/m 1,9 km/h (1 Bft) O-NO 67 0 min 8,0 C 13,0 C 2,9 km/h (1 Bft)
19.09.2021 10:50 11,1 C 16,6 C 11,3 C 13,0 C 13,0 C 1,9 C 80 % 83 % 1016,2 hPa 0,0 l/m 2,3 km/h (1 Bft) O-NO 67 0 min 7,8 C 13,0 C 9,0 km/h (2 Bft)
19.09.2021 10:55 10,9 C 16,6 C 11,1 C 12,7 C 12,7 C 1,8 C 79 % 81 % 1016,3 hPa 0,0 l/m 4,2 km/h (1 Bft) O-NO 67 0 min 7,4 C 12,7 C 4,5 km/h (1 Bft)
19.09.2021 11:00 11,1 C 16,5 C 11,2 C 12,7 C 12,7 C 1,6 C 79 % 83 % 1016,3 hPa 0,0 l/m 3,2 km/h (1 Bft) O-NO 67 0 min 7,6 C 12,7 C 0,0 km/h (0 Bft)
19.09.2021 11:05 11,0 C 16,5 C 11,2 C 12,7 C 12,7 C 1,7 C 79 % 82 % 1016,3 hPa 0,0 l/m 2,3 km/h (1 Bft) O-NO 67 0 min 7,5 C 12,7 C 4,2 km/h (1 Bft)
19.09.2021 11:10 10,9 C 16,5 C 11,1 C 12,7 C 12,7 C 1,8 C 79 % 81 % 1016,3 hPa 0,0 l/m 2,9 km/h (1 Bft) S 180 0 min 7,4 C 12,7 C 2,9 km/h (1 Bft)
19.09.2021 11:15 11,0 C 16,5 C 11,1 C 12,7 C 12,7 C 1,7 C 80 % 82 % 1016,2 hPa 0,0 l/m 2,4 km/h (1 Bft) O-NO 67 0 min 7,7 C 12,7 C 2,4 km/h (1 Bft)
19.09.2021 11:20 11,0 C 16,5 C 11,1 C 12,7 C 12,7 C 1,7 C 80 % 83 % 1016,2 hPa 0,0 l/m 1,0 km/h (0 Bft) O-NO 67 0 min 7,7 C 12,7 C 0,0 km/h (0 Bft)
19.09.2021 11:25 11,1 C 16,5 C 11,1 C 12,8 C 12,8 C 1,7 C 80 % 83 % 1016,2 hPa 0,0 l/m 0,5 km/h (0 Bft) O-NO 67 0 min 7,8 C 12,8 C 0,0 km/h (0 Bft)
19.09.2021 11:30 11,1 C 16,5 C 11,2 C 12,9 C 12,9 C 1,8 C 81 % 83 % 1016,2 hPa 0,0 l/m 0,6 km/h (0 Bft) O-NO 67 0 min 8,0 C 12,9 C 3,9 km/h (1 Bft)
19.09.2021 11:35 11,1 C 16,5 C 11,2 C 12,9 C 12,9 C 1,8 C 80 % 83 % 1016,4 hPa 0,0 l/m 1,4 km/h (1 Bft) O-NO 67 0 min 7,8 C 12,9 C 2,9 km/h (1 Bft)
19.09.2021 11:40 11,1 C 16,5 C 11,2 C 12,9 C 12,9 C 1,8 C 80 % 82 % 1016,4 hPa 0,0 l/m 2,3 km/h (1 Bft) O-NO 67 0 min 7,8 C 12,9 C 1,9 km/h (1 Bft)
19.09.2021 11:45 11,1 C 16,4 C 11,2 C 12,9 C 12,9 C 1,8 C 80 % 82 % 1016,4 hPa 0,0 l/m 1,6 km/h (1 Bft) O-NO 67 0 min 7,8 C 12,9 C 3,4 km/h (1 Bft)
19.09.2021 11:50 11,1 C 16,4 C 11,2 C 12,9 C 12,9 C 1,8 C 80 % 80 % 1016,4 hPa 0,0 l/m 1,9 km/h (1 Bft) O-NO 67 0 min 7,8 C 12,9 C 6,1 km/h (2 Bft)
19.09.2021 11:55 11,0 C 16,4 C 11,3 C 12,9 C 12,9 C 1,9 C 79 % 80 % 1016,5 hPa 0,0 l/m 2,6 km/h (1 Bft) O-NO 67 0 min 7,5 C 12,9 C 6,1 km/h (2 Bft)
19.09.2021 12:00 11,1 C 16,4 C 11,4 C 13,0 C 13,0 C 1,9 C 79 % 81 % 1016,5 hPa 0,0 l/m 2,3 km/h (1 Bft) O 90 0 min 7,6 C 13,0 C 0,0 km/h (0 Bft)
19.09.2021 12:05 11,2 C 16,4 C 11,5 C 13,5 C 13,5 C 2,3 C 79 % 80 % 1016,5 hPa 0,0 l/m 2,1 km/h (1 Bft) O-SO 112 0 min 7,7 C 13,5 C 2,6 km/h (1 Bft)
19.09.2021 12:10 11,3 C 16,3 C 11,5 C 13,7 C 13,7 C 2,4 C 78 % 80 % 1016,5 hPa 0,0 l/m 1,8 km/h (1 Bft) SW 225 0 min 7,6 C 13,7 C 3,9 km/h (1 Bft)
19.09.2021 12:15 11,3 C 16,4 C 11,5 C 13,8 C 13,8 C 2,5 C 78 % 80 % 1016,6 hPa 0,0 l/m 2,1 km/h (1 Bft) NO 45 0 min 7,6 C 13,8 C 2,6 km/h (1 Bft)
19.09.2021 12:20 11,3 C 16,3 C 11,5 C 13,8 C 13,8 C 2,5 C 78 % 79 % 1016,6 hPa 0,0 l/m 2,6 km/h (1 Bft) O-NO 67 0 min 7,6 C 13,8 C 4,8 km/h (1 Bft)
19.09.2021 12:25 11,3 C 16,3 C 11,6 C 13,7 C 13,7 C 2,4 C 77 % 78 % 1016,6 hPa 0,0 l/m 3,2 km/h (1 Bft) O 90 0 min 7,4 C 13,7 C 2,9 km/h (1 Bft)
19.09.2021 12:30 11,3 C 16,3 C 11,6 C 13,8 C 13,8 C 2,5 C 77 % 78 % 1016,6 hPa 0,0 l/m 3,5 km/h (1 Bft) O-NO 67 0 min 7,4 C 13,8 C 6,4 km/h (2 Bft)
19.09.2021 12:35 11,2 C 16,3 C 11,5 C 13,6 C 13,6 C 2,4 C 76 % 77 % 1016,6 hPa 0,0 l/m 3,7 km/h (1 Bft) O-NO 67 0 min 7,1 C 13,6 C 3,9 km/h (1 Bft)
19.09.2021 12:40 11,2 C 16,3 C 11,5 C 13,6 C 13,6 C 2,4 C 76 % 77 % 1016,6 hPa 0,0 l/m 4,3 km/h (1 Bft) O-NO 67 0 min 7,1 C 13,6 C 9,3 km/h (2 Bft)
19.09.2021 12:45 11,2 C 16,3 C 11,5 C 13,3 C 13,3 C 2,1 C 74 % 76 % 1016,6 hPa 0,0 l/m 4,8 km/h (1 Bft) O-NO 67 0 min 6,7 C 13,3 C 3,2 km/h (1 Bft)
19.09.2021 12:50 11,2 C 16,3 C 11,5 C 13,3 C 13,3 C 2,1 C 76 % 78 % 1016,6 hPa 0,0 l/m 4,8 km/h (1 Bft) O-NO 67 0 min 7,1 C 13,3 C 6,9 km/h (2 Bft)
19.09.2021 12:55 11,3 C 16,2 C 11,6 C 13,3 C 13,3 C 2,0 C 75 % 76 % 1016,5 hPa 0,0 l/m 4,2 km/h (1 Bft) O-NO 67 0 min 7,0 C 13,3 C 4,8 km/h (1 Bft)
19.09.2021 13:00 11,3 C 16,2 C 11,5 C 13,3 C 13,3 C 2,0 C 75 % 77 % 1016,5 hPa 0,0 l/m 4,2 km/h (1 Bft) O-NO 67 0 min 7,0 C 13,3 C 6,8 km/h (2 Bft)
19.09.2021 13:05 11,3 C 16,2 C 11,6 C 13,3 C 13,3 C 2,0 C 75 % 76 % 1016,5 hPa 0,0 l/m 3,7 km/h (1 Bft) O-NO 67 0 min 7,0 C 13,3 C 5,1 km/h (1 Bft)
19.09.2021 13:10 11,3 C 16,2 C 11,6 C 13,2 C 13,2 C 1,9 C 75 % 76 % 1016,5 hPa 0,0 l/m 3,4 km/h (1 Bft) O-NO 67 0 min 7,0 C 13,2 C 6,0 km/h (2 Bft)
19.09.2021 13:15 11,3 C 16,2 C 11,6 C 13,2 C 13,2 C 1,9 C 76 % 78 % 1016,6 hPa 0,0 l/m 2,7 km/h (1 Bft) O-NO 67 0 min 7,2 C 13,2 C 3,9 km/h (1 Bft)
19.09.2021 13:20 11,3 C 16,2 C 11,6 C 13,2 C 13,2 C 1,9 C 76 % 77 % 1016,6 hPa 0,0 l/m 3,2 km/h (1 Bft) O-SO 112 0 min 7,2 C 13,2 C 3,7 km/h (1 Bft)
19.09.2021 13:25 11,3 C 16,2 C 11,5 C 13,2 C 13,2 C 1,9 C 75 % 76 % 1016,6 hPa 0,0 l/m 4,0 km/h (1 Bft) O 90 0 min 7,0 C 13,2 C 4,8 km/h (1 Bft)
19.09.2021 13:30 11,3 C 16,2 C 11,6 C 13,2 C 13,2 C 1,9 C 76 % 77 % 1016,6 hPa 0,0 l/m 4,0 km/h (1 Bft) O-NO 67 0 min 7,2 C 13,2 C 6,4 km/h (2 Bft)
19.09.2021 13:35 11,5 C 16,2 C 11,6 C 13,2 C 13,2 C 1,7 C 76 % 77 % 1016,8 hPa 0,0 l/m 3,9 km/h (1 Bft) O-NO 67 0 min 7,4 C 13,2 C 6,6 km/h (2 Bft)
19.09.2021 13:40 11,5 C 16,2 C 11,7 C 13,2 C 13,2 C 1,7 C 76 % 77 % 1016,8 hPa 0,0 l/m 3,7 km/h (1 Bft) O-NO 67 0 min 7,4 C 13,2 C 3,5 km/h (1 Bft)
19.09.2021 13:45 11,4 C 16,1 C 11,6 C 13,2 C 13,2 C 1,8 C 75 % 76 % 1016,8 hPa 0,0 l/m 3,4 km/h (1 Bft) O-NO 67 0 min 7,1 C 13,2 C 2,7 km/h (1 Bft)
19.09.2021 13:50 11,5 C 16,1 C 11,6 C 13,2 C 13,2 C 1,7 C 75 % 76 % 1016,8 hPa 0,0 l/m 3,5 km/h (1 Bft) O-NO 67 0 min 7,2 C 13,2 C 4,2 km/h (1 Bft)
19.09.2021 13:55 11,4 C 16,1 C 11,7 C 13,2 C 13,2 C 1,8 C 74 % 76 % 1016,8 hPa 0,0 l/m 3,5 km/h (1 Bft) O-NO 67 0 min 6,9 C 13,2 C 2,6 km/h (1 Bft)
19.09.2021 14:00 11,4 C 16,1 C 11,7 C 13,3 C 13,3 C 1,9 C 73 % 74 % 1016,8 hPa 0,0 l/m 3,9 km/h (1 Bft) O-SO 112 0 min 6,7 C 13,3 C 3,1 km/h (1 Bft)
19.09.2021 14:05 11,4 C 16,1 C 11,7 C 13,4 C 13,4 C 2,0 C 73 % 76 % 1016,8 hPa 0,0 l/m 4,2 km/h (1 Bft) N-NO 22 0 min 6,7 C 13,4 C 2,3 km/h (1 Bft)
19.09.2021 14:10 11,7 C 16,1 C 11,9 C 13,5 C 13,5 C 1,8 C 74 % 77 % 1016,8 hPa 0,0 l/m 3,7 km/h (1 Bft) O-NO 67 0 min 7,2 C 13,5 C 5,5 km/h (1 Bft)
19.09.2021 14:15 11,6 C 16,1 C 11,9 C 13,6 C 13,6 C 2,0 C 73 % 75 % 1017,1 hPa 0,0 l/m 3,5 km/h (1 Bft) O-NO 67 0 min 6,9 C 13,6 C 3,7 km/h (1 Bft)
19.09.2021 14:20 11,6 C 16,1 C 11,9 C 13,6 C 13,6 C 2,0 C 73 % 76 % 1017,1 hPa 0,0 l/m 3,4 km/h (1 Bft) O-NO 67 0 min 6,9 C 13,6 C 2,3 km/h (1 Bft)
19.09.2021 14:25 11,9 C 16,1 C 11,9 C 13,8 C 13,8 C 1,9 C 73 % 75 % 1017,1 hPa 0,0 l/m 1,4 km/h (1 Bft) O-NO 67 0 min 7,2 C 13,8 C 3,4 km/h (1 Bft)
19.09.2021 14:30 11,9 C 16,1 C 11,9 C 13,9 C 13,9 C 2,0 C 74 % 76 % 1017,1 hPa 0,0 l/m 1,0 km/h (0 Bft) NO 45 0 min 7,4 C 13,9 C 0,0 km/h (0 Bft)
19.09.2021 14:35 11,9 C 16,0 C 11,9 C 13,8 C 13,8 C 1,9 C 72 % 74 % 1016,7 hPa 0,0 l/m 2,3 km/h (1 Bft) O-NO 67 0 min 7,0 C 13,8 C 6,6 km/h (2 Bft)
19.09.2021 14:40 11,8 C 16,0 C 11,9 C 13,7 C 13,7 C 1,9 C 71 % 74 % 1016,7 hPa 0,0 l/m 2,9 km/h (1 Bft) O-NO 67 0 min 6,7 C 13,7 C 4,2 km/h (1 Bft)
19.09.2021 14:45 11,7 C 16,0 C 11,8 C 13,4 C 13,4 C 1,7 C 71 % 73 % 1016,7 hPa 0,0 l/m 3,7 km/h (1 Bft) O-NO 67 0 min 6,6 C 13,4 C 3,5 km/h (1 Bft)
19.09.2021 14:50 11,7 C 16,0 C 11,8 C 13,4 C 13,4 C 1,7 C 71 % 74 % 1016,7 hPa 0,0 l/m 3,9 km/h (1 Bft) O-NO 67 0 min 6,6 C 13,4 C 6,0 km/h (2 Bft)
19.09.2021 14:55 11,8 C 16,0 C 11,8 C 13,4 C 13,4 C 1,6 C 72 % 75 % 1016,6 hPa 0,0 l/m 3,1 km/h (1 Bft) O 90 0 min 6,9 C 13,4 C 2,3 km/h (1 Bft)
19.09.2021 15:00 11,9 C 16,0 C 11,9 C 13,4 C 13,4 C 1,5 C 72 % 74 % 1016,6 hPa 0,0 l/m 2,9 km/h (1 Bft) O-NO 67 0 min 7,0 C 13,4 C 3,5 km/h (1 Bft)
19.09.2021 15:05 11,9 C 16,0 C 11,8 C 13,3 C 13,3 C 1,4 C 71 % 75 % 1016,6 hPa 0,0 l/m 3,2 km/h (1 Bft) O-NO 67 0 min 6,8 C 13,3 C 4,3 km/h (1 Bft)
19.09.2021 15:10 11,7 C 16,0 C 11,8 C 13,2 C 13,2 C 1,5 C 71 % 75 % 1016,6 hPa 0,0 l/m 3,9 km/h (1 Bft) O-NO 67 0 min 6,6 C 13,2 C 4,2 km/h (1 Bft)
19.09.2021 15:15 11,7 C 16,0 C 11,8 C 13,1 C 13,1 C 1,4 C 71 % 76 % 1016,5 hPa 0,0 l/m 3,9 km/h (1 Bft) O-NO 67 0 min 6,6 C 13,1 C 4,5 km/h (1 Bft)
19.09.2021 15:20 11,7 C 16,0 C 11,8 C 13,1 C 13,1 C 1,4 C 71 % 76 % 1016,5 hPa 0,0 l/m 3,5 km/h (1 Bft) O-NO 67 0 min 6,6 C 13,1 C 2,9 km/h (1 Bft)
19.09.2021 15:25 11,8 C 15,9 C 11,8 C 13,3 C 13,3 C 1,5 C 71 % 74 % 1016,5 hPa 0,0 l/m 3,2 km/h (1 Bft) O-NO 67 0 min 6,7 C 13,3 C 2,6 km/h (1 Bft)
19.09.2021 15:30 11,8 C 15,9 C 11,8 C 13,4 C 13,4 C 1,6 C 71 % 74 % 1016,5 hPa 0,0 l/m 3,1 km/h (1 Bft) SO 135 0 min 6,7 C 13,4 C 2,7 km/h (1 Bft)
19.09.2021 15:35 11,9 C 15,9 C 11,9 C 13,7 C 13,7 C 1,8 C 72 % 75 % 1016,5 hPa 0,0 l/m 1,8 km/h (1 Bft) O-SO 112 0 min 7,0 C 13,7 C 0,0 km/h (0 Bft)
19.09.2021 15:40 12,1 C 15,9 C 12,0 C 13,8 C 13,8 C 1,7 C 73 % 76 % 1016,5 hPa 0,0 l/m 0,6 km/h (0 Bft) O-NO 67 0 min 7,4 C 13,8 C 0,0 km/h (0 Bft)
19.09.2021 15:45 12,0 C 15,9 C 11,9 C 13,8 C 13,8 C 1,8 C 72 % 74 % 1016,5 hPa 0,0 l/m 1,1 km/h (1 Bft) O 90 0 min 7,1 C 13,8 C 3,7 km/h (1 Bft)
19.09.2021 15:50 11,9 C 15,9 C 11,8 C 13,4 C 13,4 C 1,5 C 71 % 74 % 1016,5 hPa 0,0 l/m 2,6 km/h (1 Bft) NW 315 0 min 6,8 C 13,4 C 3,2 km/h (1 Bft)
19.09.2021 15:55 11,9 C 15,9 C 11,8 C 13,2 C 13,2 C 1,3 C 71 % 75 % 1016,2 hPa 0,0 l/m 3,2 km/h (1 Bft) O-SO 112 0 min 6,8 C 13,2 C 1,9 km/h (1 Bft)
19.09.2021 16:00 11,9 C 15,9 C 11,9 C 13,2 C 13,2 C 1,3 C 72 % 76 % 1016,2 hPa 0,0 l/m 2,6 km/h (1 Bft) O-NO 67 0 min 7,0 C 13,2 C 1,8 km/h (1 Bft)
19.09.2021 16:05 12,0 C 15,9 C 12,1 C 13,6 C 13,6 C 1,6 C 74 % 77 % 1016,2 hPa 0,0 l/m 1,4 km/h (1 Bft) NO 45 0 min 7,5 C 13,6 C 6,8 km/h (2 Bft)
19.09.2021 16:10 12,1 C 15,9 C 12,0 C 13,6 C 13,6 C 1,5 C 72 % 74 % 1016,2 hPa 0,0 l/m 2,4 km/h (1 Bft) NO 45 0 min 7,2 C 13,6 C 5,3 km/h (1 Bft)
19.09.2021 16:15 12,0 C 15,9 C 12,0 C 13,6 C 13,6 C 1,6 C 72 % 75 % 1016,4 hPa 0,0 l/m 3,2 km/h (1 Bft) O-NO 67 0 min 7,1 C 13,6 C 3,1 km/h (1 Bft)
19.09.2021 16:20 12,1 C 15,9 C 12,0 C 13,7 C 13,7 C 1,6 C 72 % 75 % 1016,4 hPa 0,0 l/m 2,6 km/h (1 Bft) O-NO 67 0 min 7,2 C 13,7 C 7,4 km/h (2 Bft)
19.09.2021 16:25 12,1 C 15,9 C 11,9 C 13,4 C 13,4 C 1,3 C 72 % 74 % 1016,4 hPa 0,0 l/m 3,2 km/h (1 Bft) O 90 0 min 7,2 C 13,4 C 3,4 km/h (1 Bft)
19.09.2021 16:30 12,1 C 15,9 C 11,9 C 13,4 C 13,4 C 1,3 C 72 % 75 % 1016,4 hPa 0,0 l/m 2,6 km/h (1 Bft) NO 45 0 min 7,2 C 13,4 C 0,0 km/h (0 Bft)
19.09.2021 16:35 12,1 C 15,9 C 11,9 C 13,3 C 13,3 C 1,2 C 73 % 76 % 1016,2 hPa 0,0 l/m 1,4 km/h (1 Bft) O-NO 67 0 min 7,4 C 13,3 C 2,9 km/h (1 Bft)
19.09.2021 16:40 12,1 C 15,8 C 11,9 C 13,2 C 13,2 C 1,1 C 73 % 76 % 1016,2 hPa 0,0 l/m 1,6 km/h (1 Bft) O-NO 67 0 min 7,4 C 13,2 C 2,1 km/h (1 Bft)
19.09.2021 16:45 12,1 C 15,8 C 11,9 C 13,2 C 13,2 C 1,1 C 74 % 76 % 1016,2 hPa 0,0 l/m 0,8 km/h (0 Bft) O-NO 67 0 min 7,6 C 13,2 C 0,0 km/h (0 Bft)
19.09.2021 16:50 12,1 C 15,8 C 11,9 C 13,2 C 13,2 C 1,1 C 74 % 76 % 1016,2 hPa 0,0 l/m 0,2 km/h (0 Bft) NO 45 0 min 7,6 C 13,2 C 0,0 km/h (0 Bft)
19.09.2021 16:55 12,3 C 15,8 C 11,9 C 13,4 C 13,4 C 1,1 C 75 % 76 % 1016,3 hPa 0,0 l/m 0,2 km/h (0 Bft) O 90 0 min 8,0 C 13,4 C 0,0 km/h (0 Bft)
19.09.2021 17:00 12,3 C 15,8 C 12,0 C 13,6 C 13,6 C 1,3 C 75 % 77 % 1016,3 hPa 0,0 l/m 0,2 km/h (0 Bft) NW 315 0 min 8,0 C 13,6 C 0,0 km/h (0 Bft)
19.09.2021 17:05 12,3 C 15,8 C 12,0 C 13,8 C 13,8 C 1,5 C 74 % 77 % 1016,3 hPa 0,0 l/m 0,2 km/h (0 Bft) NO 45 0 min 7,8 C 13,8 C 0,0 km/h (0 Bft)
19.09.2021 17:10 12,3 C 15,8 C 12,0 C 13,8 C 13,8 C 1,5 C 74 % 77 % 1016,3 hPa 0,0 l/m 0,3 km/h (0 Bft) O-SO 112 0 min 7,8 C 13,8 C 1,9 km/h (1 Bft)
19.09.2021 17:15 12,3 C 15,8 C 12,1 C 13,8 C 13,8 C 1,5 C 74 % 77 % 1016,3 hPa 0,0 l/m 0,2 km/h (0 Bft) O-NO 67 0 min 7,8 C 13,8 C 0,0 km/h (0 Bft)
19.09.2021 17:20 12,4 C 15,8 C 12,1 C 13,8 C 13,8 C 1,4 C 75 % 77 % 1016,3 hPa 0,0 l/m 0,2 km/h (0 Bft) O 90 0 min 8,1 C 13,8 C 0,0 km/h (0 Bft)
19.09.2021 17:25 12,3 C 15,8 C 12,0 C 13,7 C 13,7 C 1,4 C 74 % 76 % 1016,3 hPa 0,0 l/m 0,6 km/h (0 Bft) O-SO 112 0 min 7,8 C 13,7 C 3,2 km/h (1 Bft)
19.09.2021 17:30 12,2 C 15,8 C 11,9 C 13,4 C 13,4 C 1,2 C 73 % 76 % 1016,3 hPa 0,0 l/m 1,8 km/h (1 Bft) O-SO 112 0 min 7,5 C 13,4 C 1,9 km/h (1 Bft)
19.09.2021 17:35 12,3 C 15,8 C 11,9 C 13,2 C 13,2 C 0,9 C 73 % 77 % 1016,2 hPa 0,0 l/m 1,4 km/h (1 Bft) O-NO 67 0 min 7,6 C 13,2 C 0,0 km/h (0 Bft)
19.09.2021 17:40 12,3 C 15,8 C 11,9 C 13,0 C 13,0 C 0,7 C 73 % 77 % 1016,2 hPa 0,0 l/m 0,2 km/h (0 Bft) O-NO 67 0 min 7,6 C 13,0 C 0,0 km/h (0 Bft)
19.09.2021 17:45 12,3 C 15,8 C 11,8 C 12,9 C 12,9 C 0,6 C 75 % 78 % 1016,2 hPa 0,0 l/m 0,3 km/h (0 Bft) NO 45 0 min 8,0 C 12,9 C 0,0 km/h (0 Bft)
19.09.2021 17:50 12,1 C 15,8 C 11,7 C 12,7 C 12,7 C 0,6 C 74 % 77 % 1016,2 hPa 0,0 l/m 1,6 km/h (1 Bft) O-NO 67 0 min 7,6 C 12,7 C 4,0 km/h (1 Bft)
19.09.2021 17:55 12,0 C 15,8 C 11,8 C 12,6 C 12,6 C 0,6 C 74 % 78 % 1016,2 hPa 0,0 l/m 2,3 km/h (1 Bft) NO 45 0 min 7,5 C 12,6 C 1,9 km/h (1 Bft)
19.09.2021 18:00 12,0 C 15,8 C 11,7 C 12,5 C 12,5 C 0,5 C 74 % 78 % 1016,2 hPa 0,0 l/m 1,8 km/h (1 Bft) O-NO 67 0 min 7,5 C 12,5 C 1,9 km/h (1 Bft)
19.09.2021 18:05 12,1 C 15,8 C 11,8 C 12,6 C 12,6 C 0,5 C 75 % 78 % 1016,2 hPa 0,0 l/m 0,6 km/h (0 Bft) NO 45 0 min 7,8 C 12,6 C 0,0 km/h (0 Bft)
19.09.2021 18:10 12,1 C 15,8 C 11,7 C 12,5 C 12,5 C 0,4 C 75 % 80 % 1016,2 hPa 0,0 l/m 0,2 km/h (0 Bft) O 90 0 min 7,8 C 12,5 C 0,0 km/h (0 Bft)
19.09.2021 18:15 12,1 C 15,8 C 11,6 C 12,4 C 12,4 C 0,3 C 76 % 80 % 1016,5 hPa 0,0 l/m 0,0 km/h (0 Bft) NO 45 0 min 8,0 C 12,4 C 0,0 km/h (0 Bft)
19.09.2021 18:20 12,1 C 15,8 C 11,6 C 12,4 C 12,4 C 0,3 C 76 % 81 % 1016,5 hPa 0,0 l/m 0,0 km/h (0 Bft) NO 45 0 min 8,0 C 12,4 C 0,0 km/h (0 Bft)
19.09.2021 18:25 12,1 C 15,8 C 11,6 C 12,2 C 12,2 C 0,1 C 77 % 81 % 1016,5 hPa 0,0 l/m 0,0 km/h (0 Bft) NO 45 0 min 8,2 C 12,2 C 0,0 km/h (0 Bft)
19.09.2021 18:30 12,1 C 15,8 C 11,5 C 12,2 C 12,2 C 0,1 C 77 % 82 % 1016,5 hPa 0,0 l/m 0,0 km/h (0 Bft) NO 45 0 min 8,2 C 12,2 C 0,0 km/h (0 Bft)
19.09.2021 18:35 12,0 C 15,8 C 11,5 C 12,1 C 12,1 C 0,1 C 77 % 82 % 1016,2 hPa 0,0 l/m 0,0 km/h (0 Bft) NO 45 0 min 8,1 C 12,1 C 0,0 km/h (0 Bft)
19.09.2021 18:40 12,0 C 15,8 C 11,4 C 12,0 C 12,0 C 0,0 C 77 % 82 % 1016,2 hPa 0,0 l/m 0,0 km/h (0 Bft) O-NO 67 0 min 8,1 C 12,0 C 0,0 km/h (0 Bft)
19.09.2021 18:45 11,9 C 15,8 C 11,4 C 11,9 C 11,9 C 0,0 C 77 % 82 % 1016,2 hPa 0,0 l/m 0,0 km/h (0 Bft) O-NO 67 0 min 8,0 C 11,9 C 0,0 km/h (0 Bft)
19.09.2021 18:50 11,9 C 15,8 C 11,4 C 11,9 C 11,9 C 0,0 C 77 % 82 % 1016,2 hPa 0,0 l/m 0,0 km/h (0 Bft) O-NO 67 0 min 8,0 C 11,9 C 0,0 km/h (0 Bft)
19.09.2021 18:55 11,9 C 15,8 C 11,3 C 11,8 C 11,7 C 0,0 C 78 % 83 % 1016,4 hPa 0,0 l/m 0,0 km/h (0 Bft) O-NO 67 0 min 8,2 C 11,7 C 0,0 km/h (0 Bft)
19.09.2021 19:00 11,9 C 15,8 C 11,3 C 11,8 C 11,6 C 0,0 C 78 % 83 % 1016,4 hPa 0,0 l/m 0,0 km/h (0 Bft) O-NO 67 0 min 8,2 C 11,6 C 0,0 km/h (0 Bft)
19.09.2021 19:05 11,8 C 15,8 C 11,3 C 11,7 C 11,4 C 0,0 C 78 % 83 % 1016,4 hPa 0,0 l/m 0,0 km/h (0 Bft) O-NO 67 0 min 8,1 C 11,4 C 0,0 km/h (0 Bft)
19.09.2021 19:10 11,7 C 15,8 C 11,3 C 11,6 C 11,4 C 0,0 C 79 % 84 % 1016,4 hPa 0,0 l/m 0,0 km/h (0 Bft) O-NO 67 0 min 8,2 C 11,4 C 0,0 km/h (0 Bft)
19.09.2021 19:15 11,6 C 15,8 C 11,2 C 11,5 C 11,2 C 0,0 C 79 % 84 % 1016,7 hPa 0,0 l/m 0,0 km/h (0 Bft) O-NO 67 0 min 8,1 C 11,2 C 0,0 km/h (0 Bft)
19.09.2021 19:20 11,6 C 15,8 C 11,1 C 11,5 C 11,2 C 0,0 C 80 % 85 % 1016,7 hPa 0,0 l/m 0,0 km/h (0 Bft) O-NO 67 0 min 8,3 C 11,2 C 0,0 km/h (0 Bft)
19.09.2021 19:25 11,6 C 15,8 C 11,1 C 11,4 C 11,1 C 0,0 C 80 % 85 % 1016,7 hPa 0,0 l/m 0,0 km/h (0 Bft) O-NO 67 0 min 8,3 C 11,1 C 0,0 km/h (0 Bft)
19.09.2021 19:30 11,6 C 15,9 C 11,1 C 11,4 C 11,1 C 0,0 C 80 % 85 % 1016,7 hPa 0,0 l/m 0,0 km/h (0 Bft) O-NO 67 0 min 8,3 C 11,1 C 0,0 km/h (0 Bft)
19.09.2021 19:35 11,6 C 15,9 C 11,1 C 11,4 C 11,1 C 0,0 C 81 % 86 % 1016,8 hPa 0,0 l/m 0,0 km/h (0 Bft) O-NO 67 0 min 8,5 C 11,1 C 0,0 km/h (0 Bft)
19.09.2021 19:40 11,5 C 15,9 C 11,1 C 11,3 C 11,0 C 0,0 C 81 % 86 % 1016,8 hPa 0,0 l/m 0,0 km/h (0 Bft) O-NO 67 0 min 8,4 C 11,0 C 0,0 km/h (0 Bft)
19.09.2021 19:45 11,5 C 15,9 C 11,0 C 11,3 C 10,9 C 0,0 C 82 % 86 % 1016,8 hPa 0,0 l/m 0,0 km/h (0 Bft) O-NO 67 0 min 8,5 C 10,9 C 0,0 km/h (0 Bft)
19.09.2021 19:50 11,5 C 15,9 C 10,9 C 11,3 C 10,9 C 0,0 C 82 % 86 % 1016,8 hPa 0,0 l/m 0,0 km/h (0 Bft) O-NO 67 0 min 8,5 C 10,9 C 0,0 km/h (0 Bft)
19.09.2021 19:55 11,4 C 15,9 C 10,9 C 11,2 C 10,9 C 0,0 C 82 % 86 % 1016,8 hPa 0,0 l/m 0,0 km/h (0 Bft) O-NO 67 0 min 8,4 C 10,9 C 0,0 km/h (0 Bft)
19.09.2021 20:00 11,3 C 15,9 C 10,9 C 11,1 C 10,8 C 0,0 C 82 % 87 % 1016,8 hPa 0,0 l/m 0,0 km/h (0 Bft) O-NO 67 0 min 8,3 C 10,8 C 0,0 km/h (0 Bft)
19.09.2021 20:05 11,2 C 15,9 C 10,8 C 11,0 C 10,7 C 0,0 C 82 % 87 % 1016,8 hPa 0,0 l/m 0,0 km/h (0 Bft) O-NO 67 0 min 8,2 C 10,7 C 0,0 km/h (0 Bft)
19.09.2021 20:10 11,3 C 15,9 C 10,7 C 11,1 C 10,7 C 0,0 C 83 % 87 % 1016,8 hPa 0,0 l/m 0,0 km/h (0 Bft) O-NO 67 0 min 8,5 C 10,7 C 0,0 km/h (0 Bft)
19.09.2021 20:15 11,2 C 15,9 C 10,7 C 11,0 C 10,7 C 0,0 C 83 % 87 % 1017,2 hPa 0,0 l/m 0,0 km/h (0 Bft) O-NO 67 0 min 8,4 C 10,7 C 0,0 km/h (0 Bft)
19.09.2021 20:20 11,2 C 15,9 C 10,7 C 11,0 C 10,6 C 0,0 C 83 % 87 % 1017,2 hPa 0,0 l/m 0,0 km/h (0 Bft) O-NO 67 0 min 8,4 C 10,6 C 0,0 km/h (0 Bft)
19.09.2021 20:25 11,1 C 15,9 C 10,7 C 10,9 C 10,6 C 0,0 C 83 % 87 % 1017,2 hPa 0,0 l/m 0,0 km/h (0 Bft) O-NO 67 0 min 8,3 C 10,6 C 0,0 km/h (0 Bft)
19.09.2021 20:30 11,0 C 15,9 C 10,7 C 10,8 C 10,5 C 0,0 C 83 % 88 % 1017,2 hPa 0,0 l/m 0,0 km/h (0 Bft) O-NO 67 0 min 8,2 C 10,5 C 0,0 km/h (0 Bft)
19.09.2021 20:35 11,1 C 15,8 C 10,6 C 10,9 C 10,4 C 0,0 C 83 % 88 % 1017,2 hPa 0,0 l/m 0,0 km/h (0 Bft) O-NO 67 0 min 8,3 C 10,4 C 0,0 km/h (0 Bft)
19.09.2021 20:40 11,0 C 15,9 C 10,5 C 10,8 C 10,4 C 0,0 C 84 % 88 % 1017,2 hPa 0,0 l/m 0,0 km/h (0 Bft) O-NO 67 0 min 8,4 C 10,4 C 0,0 km/h (0 Bft)
19.09.2021 20:45 10,9 C 15,9 C 10,5 C 10,7 C 10,4 C 0,0 C 84 % 88 % 1017,2 hPa 0,0 l/m 0,0 km/h (0 Bft) O-NO 67 0 min 8,3 C 10,4 C 0,0 km/h (0 Bft)
19.09.2021 20:50 10,9 C 15,9 C 10,5 C 10,7 C 10,4 C 0,0 C 84 % 88 % 1017,2 hPa 0,0 l/m 0,0 km/h (0 Bft) NO 45 0 min 8,3 C 10,4 C 0,0 km/h (0 Bft)
19.09.2021 20:55 10,9 C 16,0 C 10,5 C 10,7 C 10,4 C 0,0 C 84 % 89 % 1017,4 hPa 0,0 l/m 0,0 km/h (0 Bft) NO 45 0 min 8,3 C 10,4 C 0,0 km/h (0 Bft)
19.09.2021 21:00 10,9 C 16,0 C 10,5 C 10,7 C 10,4 C 0,0 C 85 % 89 % 1017,4 hPa 0,0 l/m 0,0 km/h (0 Bft) NO 45 0 min 8,5 C 10,4 C 0,0 km/h (0 Bft)
19.09.2021 21:05 10,9 C 16,0 C 10,5 C 10,7 C 10,3 C 0,0 C 85 % 89 % 1017,4 hPa 0,0 l/m 0,0 km/h (0 Bft) NO 45 0 min 8,5 C 10,3 C 0,0 km/h (0 Bft)
19.09.2021 21:10 10,8 C 16,0 C 10,5 C 10,6 C 10,3 C 0,0 C 85 % 89 % 1017,4 hPa 0,0 l/m 0,0 km/h (0 Bft) NO 45 0 min 8,4 C 10,3 C 0,0 km/h (0 Bft)
19.09.2021 21:15 10,8 C 16,0 C 10,5 C 10,6 C 10,3 C 0,0 C 85 % 89 % 1017,6 hPa 0,0 l/m 0,0 km/h (0 Bft) NO 45 0 min 8,4 C 10,3 C 0,0 km/h (0 Bft)
19.09.2021 21:20 10,8 C 16,0 C 10,5 C 10,6 C 10,3 C 0,0 C 85 % 90 % 1017,6 hPa 0,0 l/m 0,0 km/h (0 Bft) NO 45 0 min 8,4 C 10,3 C 0,0 km/h (0 Bft)
19.09.2021 21:25 10,8 C 16,0 C 10,5 C 10,6 C 10,3 C 0,0 C 86 % 90 % 1017,6 hPa 0,0 l/m 0,0 km/h (0 Bft) NO 45 0 min 8,6 C 10,3 C 0,0 km/h (0 Bft)
19.09.2021 21:30 10,8 C 16,0 C 10,4 C 10,6 C 10,3 C 0,0 C 86 % 90 % 1017,6 hPa 0,0 l/m 0,0 km/h (0 Bft) NO 45 0 min 8,6 C 10,3 C 0,0 km/h (0 Bft)
19.09.2021 21:35 10,8 C 16,0 C 10,4 C 10,6 C 10,2 C 0,0 C 86 % 90 % 1017,5 hPa 0,0 l/m 0,0 km/h (0 Bft) NO 45 0 min 8,6 C 10,2 C 0,0 km/h (0 Bft)
19.09.2021 21:40 10,8 C 16,0 C 10,4 C 10,6 C 10,3 C 0,0 C 86 % 90 % 1017,5 hPa 0,0 l/m 0,0 km/h (0 Bft) NO 45 0 min 8,6 C 10,3 C 0,0 km/h (0 Bft)
19.09.2021 21:45 10,7 C 15,9 C 10,4 C 10,5 C 10,2 C 0,0 C 86 % 90 % 1017,5 hPa 0,0 l/m 0,0 km/h (0 Bft) NO 45 0 min 8,5 C 10,2 C 0,0 km/h (0 Bft)
19.09.2021 21:50 10,7 C 15,9 C 10,4 C 10,5 C 10,2 C 0,0 C 86 % 90 % 1017,5 hPa 0,0 l/m 0,0 km/h (0 Bft) NO 45 0 min 8,5 C 10,2 C 0,0 km/h (0 Bft)
19.09.2021 21:55 10,6 C 15,9 C 10,4 C 10,5 C 10,3 C 0,0 C 86 % 90 % 1018,1 hPa 0,0 l/m 0,0 km/h (0 Bft) NO 45 0 min 8,4 C 10,3 C 0,0 km/h (0 Bft)
19.09.2021 22:00 10,6 C 15,9 C 10,4 C 10,5 C 10,2 C 0,0 C 86 % 89 % 1018,1 hPa 0,0 l/m 0,0 km/h (0 Bft) NO 45 0 min 8,4 C 10,2 C 0,0 km/h (0 Bft)
19.09.2021 22:05 10,6 C 15,9 C 10,4 C 10,5 C 10,3 C 0,0 C 86 % 90 % 1018,1 hPa 0,0 l/m 0,0 km/h (0 Bft) NO 45 0 min 8,4 C 10,3 C 0,0 km/h (0 Bft)
19.09.2021 22:10 10,7 C 15,9 C 10,4 C 10,6 C 10,3 C 0,0 C 86 % 90 % 1018,1 hPa 0,0 l/m 0,0 km/h (0 Bft) NO 45 0 min 8,5 C 10,3 C 0,0 km/h (0 Bft)
19.09.2021 22:15 10,7 C 15,9 C 10,3 C 10,6 C 10,3 C 0,0 C 86 % 90 % 1017,8 hPa 0,0 l/m 0,0 km/h (0 Bft) NO 45 0 min 8,5 C 10,3 C 0,0 km/h (0 Bft)
19.09.2021 22:20 10,7 C 15,9 C 10,3 C 10,5 C 10,2 C 0,0 C 86 % 90 % 1017,8 hPa 0,0 l/m 0,0 km/h (0 Bft) NO 45 0 min 8,5 C 10,2 C 0,0 km/h (0 Bft)
19.09.2021 22:25 10,6 C 15,9 C 10,3 C 10,5 C 10,2 C 0,0 C 86 % 90 % 1017,8 hPa 0,0 l/m 0,0 km/h (0 Bft) NO 45 0 min 8,4 C 10,2 C 0,0 km/h (0 Bft)
19.09.2021 22:30 10,7 C 16,0 C 10,3 C 10,5 C 10,2 C 0,0 C 86 % 90 % 1017,8 hPa 0,0 l/m 0,0 km/h (0 Bft) NO 45 0 min 8,5 C 10,2 C 0,0 km/h (0 Bft)
19.09.2021 22:35 10,6 C 16,0 C 10,3 C 10,5 C 10,2 C 0,0 C 87 % 91 % 1017,8 hPa 0,0 l/m 0,0 km/h (0 Bft) NO 45 0 min 8,5 C 10,2 C 0,0 km/h (0 Bft)
19.09.2021 22:40 10,7 C 16,0 C 10,3 C 10,5 C 10,2 C 0,0 C 87 % 91 % 1017,8 hPa 0,0 l/m 0,0 km/h (0 Bft) NO 45 0 min 8,6 C 10,2 C 0,0 km/h (0 Bft)
19.09.2021 22:45 10,7 C 16,0 C 10,3 C 10,5 C 10,1 C 0,0 C 87 % 91 % 1017,8 hPa 0,0 l/m 0,0 km/h (0 Bft) NO 45 0 min 8,6 C 10,1 C 0,0 km/h (0 Bft)
19.09.2021 22:50 10,5 C 16,0 C 10,3 C 10,4 C 10,1 C 0,0 C 87 % 91 % 1017,8 hPa 0,0 l/m 0,0 km/h (0 Bft) NO 45 0 min 8,4 C 10,1 C 0,0 km/h (0 Bft)
19.09.2021 22:55 10,5 C 16,0 C 10,3 C 10,4 C 10,1 C 0,0 C 87 % 91 % 1017,8 hPa 0,0 l/m 0,0 km/h (0 Bft) NO 45 0 min 8,4 C 10,1 C 0,0 km/h (0 Bft)
19.09.2021 23:00 10,5 C 16,0 C 10,2 C 10,4 C 10,1 C 0,0 C 87 % 91 % 1017,8 hPa 0,0 l/m 0,0 km/h (0 Bft) NO 45 0 min 8,4 C 10,1 C 0,0 km/h (0 Bft)
19.09.2021 23:05 10,5 C 16,0 C 10,3 C 10,4 C 10,1 C 0,0 C 87 % 91 % 1017,8 hPa 0,0 l/m 0,0 km/h (0 Bft) NO 45 0 min 8,4 C 10,1 C 0,0 km/h (0 Bft)
19.09.2021 23:10 10,5 C 16,0 C 10,3 C 10,4 C 10,1 C 0,0 C 87 % 91 % 1017,8 hPa 0,0 l/m 0,0 km/h (0 Bft) NO 45 0 min 8,4 C 10,1 C 0,0 km/h (0 Bft)
19.09.2021 23:15 10,5 C 16,0 C 10,3 C 10,4 C 10,1 C 0,0 C 87 % 91 % 1017,6 hPa 0,0 l/m 0,0 km/h (0 Bft) NW 315 0 min 8,4 C 10,1 C 0,0 km/h (0 Bft)
19.09.2021 23:20 10,4 C 16,0 C 10,3 C 10,3 C 10,1 C 0,0 C 87 % 91 % 1017,6 hPa 0,0 l/m 0,0 km/h (0 Bft) NW 315 0 min 8,3 C 10,1 C 0,0 km/h (0 Bft)
19.09.2021 23:25 10,4 C 16,0 C 10,2 C 10,3 C 10,1 C 0,0 C 87 % 91 % 1017,6 hPa 0,0 l/m 0,0 km/h (0 Bft) NW 315 0 min 8,3 C 10,1 C 0,0 km/h (0 Bft)
19.09.2021 23:30 10,4 C 16,1 C 10,3 C 10,3 C 10,1 C 0,0 C 87 % 91 % 1017,6 hPa 0,0 l/m 0,0 km/h (0 Bft) NW 315 0 min 8,3 C 10,1 C 0,0 km/h (0 Bft)
19.09.2021 23:35 10,4 C 16,1 C 10,3 C 10,3 C 10,1 C 0,0 C 87 % 91 % 1017,4 hPa 0,0 l/m 0,0 km/h (0 Bft) NW 315 0 min 8,3 C 10,1 C 0,0 km/h (0 Bft)
19.09.2021 23:40 10,5 C 16,1 C 10,2 C 10,3 C 10,0 C 0,0 C 87 % 91 % 1017,4 hPa 0,0 l/m 0,0 km/h (0 Bft) NW 315 0 min 8,4 C 10,0 C 0,0 km/h (0 Bft)
19.09.2021 23:45 10,4 C 16,1 C 10,2 C 10,3 C 10,0 C 0,0 C 87 % 91 % 1017,4 hPa 0,0 l/m 0,0 km/h (0 Bft) NW 315 0 min 8,3 C 10,0 C 0,0 km/h (0 Bft)
19.09.2021 23:50 10,5 C 16,1 C 10,2 C 10,3 C 10,0 C 0,0 C 87 % 91 % 1017,4 hPa 0,0 l/m 0,0 km/h (0 Bft) NW 315 0 min 8,4 C 10,0 C 0,0 km/h (0 Bft)
19.09.2021 23:55 10,3 C 16,1 C 10,1 C 10,2 C 9,9 C 0,0 C 87 % 91 % 1017,2 hPa 0,0 l/m 0,0 km/h (0 Bft) NW 315 0 min 8,2 C 9,9 C 0,0 km/h (0 Bft)
_ Min-Zeit 07:40 16:40 07:30 07:15 23:55 18:40 14:40 14:45 05:35 - 00:00 - - - 07:40 23:55 00:00
Minimum _ 7,9 C 15,8 C 10,0 C 10,0 C 9,9 C 0,0 C 71 % 73 % 1014,2 hPa - 0,0 km/h (0 Bft) - - - 6,0 C 9,9 C 0,0 km/h (0 Bft)
_ Max-Zeit 17:20 00:00 16:05 14:30 14:30 08:55 01:10 03:45 21:55 00:00 09:55 - - 07:05 09:40 14:30 10:25
Maximum _ 12,4 C 17,9 C 12,1 C 13,9 C 13,9 C 3,2 C 88 % 95 % 1018,1 hPa 0,0 l/m 4,8 km/h
O-NO (1 Bft)
- - 5 min 8,6 C 13,9 C 11,9 km/h
O-SO (2 Bft)
Durchschnitt _ 10,7 C 16,7 C 11,2 C 11,9 C 11,8 C 1,3 C 83 % 87 % 1016,0 hPa #0,0 l/m 1,1 km/h (1 Bft) O-NO - #1:55 h 7,8 C 11,8 C 1,5 km/h (1 Bft)
2021 www.wetterstation-wechselburg.de